﻿測定場所 (Monitoring sites),日付 (Measurement date),時間 (Measurement time),線量率 最大値 (max) μGy/h,線量率 最小値 (min) μGy/h,線量率 平均値 (average) μGy/h,
江戸川 (Edogawa),2016-11-06,23:01～24:00,0.0586,0.0511,0.0539,
江戸川 (Edogawa),2016-11-06,22:01～23:00,0.0576,0.0506,0.0540,
江戸川 (Edogawa),2016-11-06,21:01～22:00,0.0559,0.0509,0.0536,
江戸川 (Edogawa),2016-11-06,20:01～21:00,0.0579,0.0510,0.0540,
江戸川 (Edogawa),2016-11-06,19:01～20:00,0.0568,0.0508,0.0540,
江戸川 (Edogawa),2016-11-06,18:01～19:00,0.0581,0.0507,0.0543,
江戸川 (Edogawa),2016-11-06,17:01～18:00,0.0573,0.0497,0.0544,
江戸川 (Edogawa),2016-11-06,16:01～17:00,0.0580,0.0503,0.0540,
江戸川 (Edogawa),2016-11-06,15:01～16:00,0.0579,0.0513,0.0541,
江戸川 (Edogawa),2016-11-06,14:01～15:00,0.0573,0.0504,0.0542,
江戸川 (Edogawa),2016-11-06,13:01～14:00,0.0571,0.0510,0.0546,
江戸川 (Edogawa),2016-11-06,12:01～13:00,0.0584,0.0519,0.0547,
江戸川 (Edogawa),2016-11-06,11:01～12:00,0.0581,0.0511,0.0544,
江戸川 (Edogawa),2016-11-06,10:01～11:00,0.0577,0.0517,0.0545,
江戸川 (Edogawa),2016-11-06,09:01～10:00,0.0585,0.0509,0.0545,
江戸川 (Edogawa),2016-11-06,08:01～09:00,0.0563,0.0509,0.0539,
江戸川 (Edogawa),2016-11-06,07:01～08:00,0.0582,0.0500,0.0540,
江戸川 (Edogawa),2016-11-06,06:01～07:00,0.0578,0.0500,0.0543,
江戸川 (Edogawa),2016-11-06,05:01～06:00,0.0581,0.0505,0.0547,
江戸川 (Edogawa),2016-11-06,04:01～05:00,0.0595,0.0517,0.0548,
江戸川 (Edogawa),2016-11-06,03:01～04:00,0.0582,0.0509,0.0546,
江戸川 (Edogawa),2016-11-06,02:01～03:00,0.0581,0.0516,0.0543,
江戸川 (Edogawa),2016-11-06,01:01～02:00,0.0574,0.0497,0.0539,
江戸川 (Edogawa),2016-11-06,00:01～01:00,0.0579,0.0508,0.0541,
江戸川 (Edogawa),2016-11-05,23:01～24:00,0.0574,0.0512,0.0544,
江戸川 (Edogawa),2016-11-05,22:01～23:00,0.0572,0.0515,0.0543,
江戸川 (Edogawa),2016-11-05,21:01～22:00,0.0578,0.0513,0.0542,
江戸川 (Edogawa),2016-11-05,20:01～21:00,0.0588,0.0510,0.0539,
江戸川 (Edogawa),2016-11-05,19:01～20:00,0.0565,0.0495,0.0537,
江戸川 (Edogawa),2016-11-05,18:01～19:00,0.0581,0.0503,0.0542,
江戸川 (Edogawa),2016-11-05,17:01～18:00,0.0570,0.0511,0.0539,
江戸川 (Edogawa),2016-11-05,16:01～17:00,0.0569,0.0507,0.0539,
江戸川 (Edogawa),2016-11-05,15:01～16:00,0.0560,0.0511,0.0543,
江戸川 (Edogawa),2016-11-05,14:01～15:00,0.0572,0.0511,0.0542,
江戸川 (Edogawa),2016-11-05,13:01～14:00,0.0575,0.0519,0.0546,
江戸川 (Edogawa),2016-11-05,12:01～13:00,0.0573,0.0513,0.0546,
江戸川 (Edogawa),2016-11-05,11:01～12:00,0.0593,0.0510,0.0550,
江戸川 (Edogawa),2016-11-05,10:01～11:00,0.0585,0.0518,0.0548,
江戸川 (Edogawa),2016-11-05,09:01～10:00,0.0579,0.0519,0.0550,
江戸川 (Edogawa),2016-11-05,08:01～09:00,0.0567,0.0516,0.0542,
江戸川 (Edogawa),2016-11-05,07:01～08:00,0.0584,0.0520,0.0545,
江戸川 (Edogawa),2016-11-05,06:01～07:00,0.0596,0.0520,0.0549,
江戸川 (Edogawa),2016-11-05,05:01～06:00,0.0581,0.0512,0.0548,
江戸川 (Edogawa),2016-11-05,04:01～05:00,0.0589,0.0515,0.0548,
江戸川 (Edogawa),2016-11-05,03:01～04:00,0.0576,0.0513,0.0548,
江戸川 (Edogawa),2016-11-05,02:01～03:00,0.0581,0.0514,0.0546,
江戸川 (Edogawa),2016-11-05,01:01～02:00,0.0569,0.0501,0.0542,
江戸川 (Edogawa),2016-11-05,00:01～01:00,0.0584,0.0515,0.0542,
江戸川 (Edogawa),2016-11-04,23:01～24:00,0.0568,0.0506,0.0536,
江戸川 (Edogawa),2016-11-04,22:01～23:00,0.0560,0.0501,0.0532,
江戸川 (Edogawa),2016-11-04,21:01～22:00,0.0575,0.0500,0.0539,
江戸川 (Edogawa),2016-11-04,20:01～21:00,0.0580,0.0493,0.0539,
江戸川 (Edogawa),2016-11-04,19:01～20:00,0.0577,0.0510,0.0541,
江戸川 (Edogawa),2016-11-04,18:01～19:00,0.0585,0.0506,0.0541,
江戸川 (Edogawa),2016-11-04,17:01～18:00,0.0585,0.0499,0.0540,
江戸川 (Edogawa),2016-11-04,16:01～17:00,0.0580,0.0502,0.0542,
江戸川 (Edogawa),2016-11-04,15:01～16:00,0.0578,0.0518,0.0545,
江戸川 (Edogawa),2016-11-04,14:01～15:00,0.0572,0.0505,0.0544,
江戸川 (Edogawa),2016-11-04,13:01～14:00,0.0586,0.0511,0.0548,
江戸川 (Edogawa),2016-11-04,12:01～13:00,0.0568,0.0500,0.0545,
江戸川 (Edogawa),2016-11-04,11:01～12:00,0.0597,0.0511,0.0547,
江戸川 (Edogawa),2016-11-04,10:01～11:00,0.0576,0.0519,0.0541,
江戸川 (Edogawa),2016-11-04,09:01～10:00,0.0581,0.0508,0.0539,
江戸川 (Edogawa),2016-11-04,08:01～09:00,0.0574,0.0502,0.0534,
江戸川 (Edogawa),2016-11-04,07:01～08:00,0.0556,0.0504,0.0532,
江戸川 (Edogawa),2016-11-04,06:01～07:00,0.0558,0.0499,0.0532,
江戸川 (Edogawa),2016-11-04,05:01～06:00,0.0559,0.0487,0.0532,
江戸川 (Edogawa),2016-11-04,04:01～05:00,0.0573,0.0506,0.0532,
江戸川 (Edogawa),2016-11-04,03:01～04:00,0.0565,0.0506,0.0536,
江戸川 (Edogawa),2016-11-04,02:01～03:00,0.0565,0.0506,0.0534,
江戸川 (Edogawa),2016-11-04,01:01～02:00,0.0579,0.0507,0.0536,
江戸川 (Edogawa),2016-11-04,00:01～01:00,0.0568,0.0481,0.0531,
江戸川 (Edogawa),2016-11-03,23:01～24:00,0.0563,0.0508,0.0532,
江戸川 (Edogawa),2016-11-03,22:01～23:00,0.0564,0.0502,0.0532,
江戸川 (Edogawa),2016-11-03,21:01～22:00,0.0560,0.0498,0.0531,
江戸川 (Edogawa),2016-11-03,20:01～21:00,0.0563,0.0480,0.0528,
江戸川 (Edogawa),2016-11-03,19:01～20:00,0.0562,0.0502,0.0532,
江戸川 (Edogawa),2016-11-03,18:01～19:00,0.0565,0.0491,0.0533,
江戸川 (Edogawa),2016-11-03,17:01～18:00,0.0557,0.0499,0.0533,
江戸川 (Edogawa),2016-11-03,16:01～17:00,0.0580,0.0508,0.0533,
江戸川 (Edogawa),2016-11-03,15:01～16:00,0.0560,0.0508,0.0534,
江戸川 (Edogawa),2016-11-03,14:01～15:00,0.0562,0.0499,0.0533,
江戸川 (Edogawa),2016-11-03,13:01～14:00,0.0573,0.0496,0.0536,
江戸川 (Edogawa),2016-11-03,12:01～13:00,0.0562,0.0505,0.0535,
江戸川 (Edogawa),2016-11-03,11:01～12:00,0.0564,0.0504,0.0531,
江戸川 (Edogawa),2016-11-03,10:01～11:00,0.0564,0.0494,0.0529,
江戸川 (Edogawa),2016-11-03,09:01～10:00,0.0569,0.0500,0.0531,
江戸川 (Edogawa),2016-11-03,08:01～09:00,0.0555,0.0497,0.0529,
江戸川 (Edogawa),2016-11-03,07:01～08:00,0.0555,0.0492,0.0528,
江戸川 (Edogawa),2016-11-03,06:01～07:00,0.0565,0.0501,0.0529,
江戸川 (Edogawa),2016-11-03,05:01～06:00,0.0562,0.0485,0.0524,
江戸川 (Edogawa),2016-11-03,04:01～05:00,0.0556,0.0479,0.0528,
江戸川 (Edogawa),2016-11-03,03:01～04:00,0.0588,0.0497,0.0529,
江戸川 (Edogawa),2016-11-03,02:01～03:00,0.0601,0.0512,0.0556,
江戸川 (Edogawa),2016-11-03,01:01～02:00,0.0683,0.0566,0.0624,
江戸川 (Edogawa),2016-11-03,00:01～01:00,0.0692,0.0526,0.0601,
江戸川 (Edogawa),2016-11-02,23:01～24:00,0.0593,0.0520,0.0555,
江戸川 (Edogawa),2016-11-02,22:01～23:00,0.0625,0.0546,0.0590,
江戸川 (Edogawa),2016-11-02,21:01～22:00,0.0579,0.0528,0.0552,
江戸川 (Edogawa),2016-11-02,20:01～21:00,0.0575,0.0512,0.0547,
江戸川 (Edogawa),2016-11-02,19:01～20:00,0.0594,0.0516,0.0549,
江戸川 (Edogawa),2016-11-02,18:01～19:00,0.0566,0.0508,0.0536,
江戸川 (Edogawa),2016-11-02,17:01～18:00,0.0566,0.0501,0.0534,
江戸川 (Edogawa),2016-11-02,16:01～17:00,0.0558,0.0489,0.0529,
江戸川 (Edogawa),2016-11-02,15:01～16:00,0.0566,0.0492,0.0531,
江戸川 (Edogawa),2016-11-02,14:01～15:00,0.0576,0.0494,0.0530,
江戸川 (Edogawa),2016-11-02,13:01～14:00,0.0565,0.0487,0.0534,
江戸川 (Edogawa),2016-11-02,12:01～13:00,0.0554,0.0497,0.0530,
江戸川 (Edogawa),2016-11-02,11:01～12:00,0.0563,0.0507,0.0535,
江戸川 (Edogawa),2016-11-02,10:01～11:00,0.0566,0.0486,0.0531,
江戸川 (Edogawa),2016-11-02,09:01～10:00,0.0563,0.0504,0.0532,
江戸川 (Edogawa),2016-11-02,08:01～09:00,0.0556,0.0488,0.0528,
江戸川 (Edogawa),2016-11-02,07:01～08:00,0.0567,0.0493,0.0528,
江戸川 (Edogawa),2016-11-02,06:01～07:00,0.0570,0.0491,0.0527,
江戸川 (Edogawa),2016-11-02,05:01～06:00,0.0565,0.0499,0.0530,
江戸川 (Edogawa),2016-11-02,04:01～05:00,0.0565,0.0501,0.0530,
江戸川 (Edogawa),2016-11-02,03:01～04:00,0.0559,0.0498,0.0531,
江戸川 (Edogawa),2016-11-02,02:01～03:00,0.0571,0.0497,0.0531,
江戸川 (Edogawa),2016-11-02,01:01～02:00,0.0573,0.0502,0.0531,
江戸川 (Edogawa),2016-11-02,00:01～01:00,0.0568,0.0500,0.0531,
江戸川 (Edogawa),2016-11-01,23:01～24:00,0.0553,0.0494,0.0528,
江戸川 (Edogawa),2016-11-01,22:01～23:00,0.0570,0.0496,0.0531,
江戸川 (Edogawa),2016-11-01,21:01～22:00,0.0568,0.0516,0.0536,
江戸川 (Edogawa),2016-11-01,20:01～21:00,0.0558,0.0491,0.0529,
江戸川 (Edogawa),2016-11-01,19:01～20:00,0.0555,0.0507,0.0533,
江戸川 (Edogawa),2016-11-01,18:01～19:00,0.0573,0.0499,0.0537,
江戸川 (Edogawa),2016-11-01,17:01～18:00,0.0572,0.0504,0.0535,
江戸川 (Edogawa),2016-11-01,16:01～17:00,0.0573,0.0494,0.0535,
江戸川 (Edogawa),2016-11-01,15:01～16:00,0.0559,0.0506,0.0532,
江戸川 (Edogawa),2016-11-01,14:01～15:00,0.0576,0.0502,0.0541,
江戸川 (Edogawa),2016-11-01,13:01～14:00,0.0579,0.0504,0.0535,
江戸川 (Edogawa),2016-11-01,12:01～13:00,0.0577,0.0513,0.0544,
江戸川 (Edogawa),2016-11-01,11:01～12:00,0.0631,0.0523,0.0572,
江戸川 (Edogawa),2016-11-01,10:01～11:00,0.0683,0.0581,0.0630,
江戸川 (Edogawa),2016-11-01,09:01～10:00,0.0683,0.0615,0.0648,
江戸川 (Edogawa),2016-11-01,08:01～09:00,0.0692,0.0612,0.0652,
江戸川 (Edogawa),2016-11-01,07:01～08:00,0.0681,0.0612,0.0646,
江戸川 (Edogawa),2016-11-01,06:01～07:00,0.0697,0.0614,0.0651,
江戸川 (Edogawa),2016-11-01,05:01～06:00,0.0674,0.0594,0.0641,
江戸川 (Edogawa),2016-11-01,04:01～05:00,0.0644,0.0528,0.0588,
江戸川 (Edogawa),2016-11-01,03:01～04:00,0.0577,0.0515,0.0542,
江戸川 (Edogawa),2016-11-01,02:01～03:00,0.0581,0.0509,0.0541,
江戸川 (Edogawa),2016-11-01,01:01～02:00,0.0577,0.0510,0.0538,
江戸川 (Edogawa),2016-11-01,00:01～01:00,0.0563,0.0501,0.0538,
江戸川 (Edogawa),2016-10-31,23:01～24:00,0.0572,0.0507,0.0538,
江戸川 (Edogawa),2016-10-31,22:01～23:00,0.0578,0.0520,0.0544,
江戸川 (Edogawa),2016-10-31,21:01～22:00,0.0572,0.0514,0.0544,
江戸川 (Edogawa),2016-10-31,20:01～21:00,0.0576,0.0500,0.0540,
江戸川 (Edogawa),2016-10-31,19:01～20:00,0.0570,0.0506,0.0540,
江戸川 (Edogawa),2016-10-31,18:01～19:00,0.0574,0.0513,0.0543,
江戸川 (Edogawa),2016-10-31,17:01～18:00,0.0569,0.0510,0.0541,
江戸川 (Edogawa),2016-10-31,16:01～17:00,0.0572,0.0508,0.0537,
江戸川 (Edogawa),2016-10-31,15:01～16:00,0.0569,0.0498,0.0540,
江戸川 (Edogawa),2016-10-31,14:01～15:00,0.0569,0.0513,0.0544,
江戸川 (Edogawa),2016-10-31,13:01～14:00,0.0574,0.0508,0.0542,
江戸川 (Edogawa),2016-10-31,12:01～13:00,0.0580,0.0513,0.0545,
江戸川 (Edogawa),2016-10-31,11:01～12:00,0.0583,0.0513,0.0545,
江戸川 (Edogawa),2016-10-31,10:01～11:00,0.0577,0.0520,0.0546,
江戸川 (Edogawa),2016-10-31,09:01～10:00,0.0574,0.0517,0.0544,
江戸川 (Edogawa),2016-10-31,08:01～09:00,0.0580,0.0519,0.0545,
江戸川 (Edogawa),2016-10-31,07:01～08:00,0.0579,0.0507,0.0543,
江戸川 (Edogawa),2016-10-31,06:01～07:00,0.0579,0.0510,0.0542,
江戸川 (Edogawa),2016-10-31,05:01～06:00,0.0579,0.0512,0.0542,
江戸川 (Edogawa),2016-10-31,04:01～05:00,0.0565,0.0506,0.0540,
江戸川 (Edogawa),2016-10-31,03:01～04:00,0.0566,0.0501,0.0537,
江戸川 (Edogawa),2016-10-31,02:01～03:00,0.0569,0.0491,0.0539,
江戸川 (Edogawa),2016-10-31,01:01～02:00,0.0570,0.0501,0.0538,
江戸川 (Edogawa),2016-10-31,00:01～01:00,0.0566,0.0507,0.0533,
